Location: Newark
(54.6833°N, 25.2833°E)
Time: 18:02:01
(UTC+00:00)

A-11 Canister half - Pass Details

Date: 28 January 2021
Orbit: 1525 x 1684 km, 47.3° (Epoch: 05 March)

Event Time Altitude Azimuth Distance (km) Brightness Sun altitude
Rises 19:17:05 0° 283° (WNW) 4,764 12.5 -37.9°
Reaches altitude 10° 19:21:53 10° 262° (W) 3,807 11.6 -38.6°
Maximum altitude 19:26:44 15° 232° (SW) 3,438 11.0 -39.2°
Enters shadow 19:31:21 11° 202° (SSW) 3,818 11.0 -39.8°
